date,time,water_lv
2014-07-01,00:00:00,198.14
2014-07-01,00:10:00,198.14
2014-07-01,00:20:00,198.14
2014-07-01,00:30:00,198.13
2014-07-01,00:40:00,198.13
2014-07-01,00:50:00,198.12
2014-07-01,01:00:00,198.12
2014-07-01,01:10:00,198.12
2014-07-01,01:20:00,198.11
2014-07-01,01:30:00,198.11
2014-07-01,01:40:00,198.1
2014-07-01,01:50:00,198.1
2014-07-01,02:00:00,198.09
2014-07-01,02:10:00,198.09
2014-07-01,02:20:00,198.08
2014-07-01,02:30:00,198.08
2014-07-01,02:40:00,198.07
2014-07-01,02:50:00,198.07
2014-07-01,03:00:00,198.06
2014-07-01,03:10:00,198.06
2014-07-01,03:20:00,198.05
2014-07-01,03:30:00,198.04
2014-07-01,03:40:00,198.04
2014-07-01,03:50:00,198.03
2014-07-01,04:00:00,198.03
2014-07-01,04:10:00,198.02
2014-07-01,04:20:00,198.02
2014-07-01,04:30:00,198.01
2014-07-01,04:40:00,198
2014-07-01,04:50:00,198
2014-07-01,05:00:00,197.99
2014-07-01,05:10:00,197.99
2014-07-01,05:20:00,197.98
2014-07-01,05:30:00,197.98
2014-07-01,05:40:00,197.97
2014-07-01,05:50:00,197.96
2014-07-01,06:00:00,197.96
2014-07-01,06:10:00,197.96
2014-07-01,06:20:00,197.95
2014-07-01,06:30:00,197.94
2014-07-01,06:40:00,197.93
2014-07-01,06:50:00,197.93
2014-07-01,07:00:00,197.92
2014-07-01,07:10:00,197.92
2014-07-01,07:20:00,197.91
2014-07-01,07:30:00,197.9
2014-07-01,07:40:00,197.9
2014-07-01,07:50:00,197.89
2014-07-01,08:00:00,197.88
2014-07-01,08:10:00,197.88
2014-07-01,08:20:00,197.87
2014-07-01,08:30:00,197.87
2014-07-01,08:40:00,197.86
2014-07-01,08:50:00,197.86
2014-07-01,09:00:00,197.85
2014-07-01,09:10:00,197.84
2014-07-01,09:20:00,197.82
2014-07-01,09:30:00,197.81
2014-07-01,09:40:00,197.8
2014-07-01,09:50:00,197.81
2014-07-01,10:00:00,197.82
2014-07-01,10:10:00,197.8
2014-07-01,10:20:00,197.8
2014-07-01,10:30:00,197.8
2014-07-01,10:40:00,197.79
2014-07-01,10:50:00,197.79
2014-07-01,11:00:00,197.78
2014-07-01,11:10:00,197.77
2014-07-01,11:20:00,197.77
2014-07-01,11:30:00,197.77
2014-07-01,11:40:00,197.76
2014-07-01,11:50:00,197.76
2014-07-01,12:00:00,197.75
2014-07-01,12:10:00,197.74
2014-07-01,12:20:00,197.74
2014-07-01,12:30:00,197.73
2014-07-01,12:40:00,197.73
2014-07-01,12:50:00,197.72
2014-07-01,13:00:00,197.72
2014-07-01,13:10:00,197.71
2014-07-01,13:20:00,197.71
2014-07-01,13:30:00,197.7
2014-07-01,13:40:00,197.7
2014-07-01,13:50:00,197.69
2014-07-01,14:00:00,197.69
2014-07-01,14:10:00,197.68
2014-07-01,14:20:00,197.68
2014-07-01,14:30:00,197.67
2014-07-01,14:40:00,197.67
2014-07-01,14:50:00,197.66
2014-07-01,15:00:00,197.66
2014-07-01,15:10:00,197.65
2014-07-01,15:20:00,197.65
2014-07-01,15:30:00,197.64
2014-07-01,15:40:00,197.64
2014-07-01,15:50:00,-
2014-07-01,16:00:00,197.63
2014-07-01,16:10:00,197.63
2014-07-01,16:20:00,197.63
2014-07-01,16:30:00,197.62
2014-07-01,16:40:00,197.62
2014-07-01,16:50:00,197.62
2014-07-01,17:00:00,197.61
2014-07-01,17:10:00,197.61
2014-07-01,17:20:00,-
2014-07-01,17:30:00,197.61
2014-07-01,17:40:00,197.61
2014-07-01,17:50:00,197.6
2014-07-01,18:00:00,197.6
2014-07-01,18:10:00,197.6
2014-07-01,18:20:00,197.6
2014-07-01,18:30:00,197.6
2014-07-01,18:40:00,197.6
2014-07-01,18:50:00,197.6
2014-07-01,19:00:00,197.59
2014-07-01,19:10:00,197.59
2014-07-01,19:20:00,197.59
2014-07-01,19:30:00,197.59
2014-07-01,19:40:00,197.59
2014-07-01,19:50:00,197.59
2014-07-01,20:00:00,197.59
2014-07-01,20:10:00,197.59
2014-07-01,20:20:00,-
2014-07-01,20:30:00,197.59
2014-07-01,20:40:00,197.59
2014-07-01,20:50:00,197.58
2014-07-01,21:00:00,197.59
2014-07-01,21:10:00,197.59
2014-07-01,21:20:00,197.59
2014-07-01,21:30:00,197.59
2014-07-01,21:40:00,197.59
2014-07-01,21:50:00,197.59
2014-07-01,22:00:00,197.59
2014-07-01,22:10:00,197.59
2014-07-01,22:20:00,197.59
2014-07-01,22:30:00,197.6
2014-07-01,22:40:00,197.6
2014-07-01,22:50:00,197.6
2014-07-01,23:00:00,197.6
2014-07-01,23:10:00,197.61
2014-07-01,23:20:00,197.61
2014-07-01,23:30:00,197.61
2014-07-01,23:40:00,-
2014-07-01,23:50:00,197.62
2014-07-02,00:00:00,197.63
2014-07-02,00:10:00,197.63
2014-07-02,00:20:00,197.64
2014-07-02,00:30:00,-
2014-07-02,00:40:00,197.64
2014-07-02,00:50:00,197.65
2014-07-02,01:00:00,197.66
2014-07-02,01:10:00,197.67
2014-07-02,01:20:00,197.67
2014-07-02,01:30:00,197.68
2014-07-02,01:40:00,197.68
2014-07-02,01:50:00,197.69
2014-07-02,02:00:00,197.7
2014-07-02,02:10:00,197.7
2014-07-02,02:20:00,197.71
2014-07-02,02:30:00,197.72
2014-07-02,02:40:00,197.72
2014-07-02,02:50:00,197.73
2014-07-02,03:00:00,197.74
2014-07-02,03:10:00,197.75
2014-07-02,03:20:00,197.75
2014-07-02,03:30:00,197.76
2014-07-02,03:40:00,197.77
2014-07-02,03:50:00,197.78
2014-07-02,04:00:00,197.78
2014-07-02,04:10:00,197.79
2014-07-02,04:20:00,197.8
2014-07-02,04:30:00,197.81
2014-07-02,04:40:00,197.82
2014-07-02,04:50:00,197.82
2014-07-02,05:00:00,197.83
2014-07-02,05:10:00,197.84
2014-07-02,05:20:00,197.85
2014-07-02,05:30:00,197.85
2014-07-02,05:40:00,197.86
2014-07-02,05:50:00,197.87
2014-07-02,06:00:00,-
2014-07-02,06:10:00,197.88
2014-07-02,06:20:00,197.89
2014-07-02,06:30:00,197.89
2014-07-02,06:40:00,197.9
2014-07-02,06:50:00,197.91
2014-07-02,07:00:00,197.91
2014-07-02,07:10:00,197.91
2014-07-02,07:20:00,197.92
2014-07-02,07:30:00,197.93
2014-07-02,07:40:00,197.93
2014-07-02,07:50:00,197.93
2014-07-02,08:00:00,197.93
2014-07-02,08:10:00,197.94
2014-07-02,08:20:00,197.94
2014-07-02,08:30:00,197.94
2014-07-02,08:40:00,197.94
2014-07-02,08:50:00,-
2014-07-02,09:00:00,-
2014-07-02,09:10:00,197.95
2014-07-02,09:20:00,197.95
2014-07-02,09:30:00,197.95
2014-07-02,09:40:00,197.95
2014-07-02,09:50:00,197.95
2014-07-02,10:00:00,197.95
2014-07-02,10:10:00,197.95
2014-07-02,10:20:00,197.95
2014-07-02,10:30:00,197.95
2014-07-02,10:40:00,197.95
2014-07-02,10:50:00,197.95
2014-07-02,11:00:00,197.95
2014-07-02,11:10:00,197.94
2014-07-02,11:20:00,197.94
2014-07-02,11:30:00,197.94
2014-07-02,11:40:00,197.94
2014-07-02,11:50:00,197.93
2014-07-02,12:00:00,197.93
2014-07-02,12:10:00,197.93
2014-07-02,12:20:00,197.92
2014-07-02,12:30:00,197.92
2014-07-02,12:40:00,197.92
2014-07-02,12:50:00,197.91
2014-07-02,13:00:00,197.91
2014-07-02,13:10:00,197.9
2014-07-02,13:20:00,197.9
2014-07-02,13:30:00,197.89
2014-07-02,13:40:00,197.89
2014-07-02,13:50:00,197.89
2014-07-02,14:00:00,-
2014-07-02,14:10:00,-
2014-07-02,14:20:00,197.88
2014-07-02,14:30:00,197.87
2014-07-02,14:40:00,197.86
2014-07-02,14:50:00,197.86
2014-07-02,15:00:00,197.85
2014-07-02,15:10:00,197.85
2014-07-02,15:20:00,197.84
2014-07-02,15:30:00,197.84
2014-07-02,15:40:00,197.83
2014-07-02,15:50:00,197.82
2014-07-02,16:00:00,197.82
2014-07-02,16:10:00,197.81
2014-07-02,16:20:00,197.81
2014-07-02,16:30:00,197.8
2014-07-02,16:40:00,197.8
2014-07-02,16:50:00,197.79
2014-07-02,17:00:00,197.78
2014-07-02,17:10:00,197.78
2014-07-02,17:20:00,197.77
2014-07-02,17:30:00,197.77
2014-07-02,17:40:00,197.76
2014-07-02,17:50:00,197.75
2014-07-02,18:00:00,197.75
2014-07-02,18:10:00,197.74
2014-07-02,18:20:00,197.74
2014-07-02,18:30:00,197.73
2014-07-02,18:40:00,197.72
2014-07-02,18:50:00,-
2014-07-02,19:00:00,-
2014-07-02,19:10:00,197.71
2014-07-02,19:20:00,197.7
2014-07-02,19:30:00,197.7
2014-07-02,19:40:00,197.69
2014-07-02,19:50:00,197.68
2014-07-02,20:00:00,197.68
2014-07-02,20:10:00,197.67
2014-07-02,20:20:00,197.66
2014-07-02,20:30:00,197.66
2014-07-02,20:40:00,197.65
2014-07-02,20:50:00,197.65
2014-07-02,21:00:00,197.64
2014-07-02,21:10:00,197.63
2014-07-02,21:20:00,197.63
2014-07-02,21:30:00,197.62
2014-07-02,21:40:00,197.62
2014-07-02,21:50:00,-
2014-07-02,22:00:00,-
2014-07-02,22:10:00,197.6
2014-07-02,22:20:00,197.59
2014-07-02,22:30:00,197.59
2014-07-02,22:40:00,197.58
2014-07-02,22:50:00,197.58
2014-07-02,23:00:00,197.57
2014-07-02,23:10:00,197.57
2014-07-02,23:20:00,197.56
2014-07-02,23:30:00,197.55
2014-07-02,23:40:00,197.55
2014-07-02,23:50:00,197.54
2014-07-03,00:00:00,197.54
2014-07-03,00:10:00,197.53
2014-07-03,00:20:00,197.53
2014-07-03,00:30:00,197.52
2014-07-03,00:40:00,197.52
2014-07-03,00:50:00,197.51
2014-07-03,01:00:00,197.51
2014-07-03,01:10:00,197.5
2014-07-03,01:20:00,197.5
2014-07-03,01:30:00,197.49
2014-07-03,01:40:00,197.49
2014-07-03,01:50:00,197.48
2014-07-03,02:00:00,-
2014-07-03,02:10:00,197.48
2014-07-03,02:20:00,197.47
2014-07-03,02:30:00,197.47
2014-07-03,02:40:00,197.46
2014-07-03,02:50:00,197.46
2014-07-03,03:00:00,197.46
2014-07-03,03:10:00,197.45
2014-07-03,03:20:00,197.45
2014-07-03,03:30:00,197.44
2014-07-03,03:40:00,197.44
2014-07-03,03:50:00,197.44
2014-07-03,04:00:00,197.43
2014-07-03,04:10:00,197.43
2014-07-03,04:20:00,197.43
2014-07-03,04:30:00,197.42
2014-07-03,04:40:00,197.42
2014-07-03,04:50:00,197.42
2014-07-03,05:00:00,197.41
2014-07-03,05:10:00,197.41
2014-07-03,05:20:00,197.41
2014-07-03,05:30:00,197.4
2014-07-03,05:40:00,197.4
2014-07-03,05:50:00,197.4
2014-07-03,06:00:00,197.4
2014-07-03,06:10:00,197.39
2014-07-03,06:20:00,197.39
2014-07-03,06:30:00,197.39
2014-07-03,06:40:00,197.39
2014-07-03,06:50:00,197.39
2014-07-03,07:00:00,197.38
2014-07-03,07:10:00,197.38
2014-07-03,07:20:00,197.38
2014-07-03,07:30:00,197.38
2014-07-03,07:40:00,197.38
2014-07-03,07:50:00,197.37
2014-07-03,08:00:00,197.37
2014-07-03,08:10:00,197.37
2014-07-03,08:20:00,197.37
2014-07-03,08:30:00,197.37
2014-07-03,08:40:00,197.36
2014-07-03,08:50:00,197.36
2014-07-03,09:00:00,197.36
2014-07-03,09:10:00,197.36
2014-07-03,09:20:00,197.36
2014-07-03,09:30:00,197.36
2014-07-03,09:40:00,197.36
2014-07-03,09:50:00,197.36
2014-07-03,10:00:00,197.35
2014-07-03,10:10:00,197.36
2014-07-03,10:20:00,197.35
2014-07-03,10:30:00,197.35
2014-07-03,10:40:00,197.35
2014-07-03,10:50:00,197.35
2014-07-03,11:00:00,197.35
2014-07-03,11:10:00,197.35
2014-07-03,11:20:00,197.36
2014-07-03,11:30:00,197.35
2014-07-03,11:40:00,197.35
2014-07-03,11:50:00,197.36
2014-07-03,12:00:00,197.35
2014-07-03,12:10:00,197.35
2014-07-03,12:20:00,197.35
2014-07-03,12:30:00,197.35
2014-07-03,12:40:00,197.35
2014-07-03,12:50:00,197.35
2014-07-03,13:00:00,197.34
2014-07-03,13:10:00,197.35
2014-07-03,13:20:00,197.35
2014-07-03,13:30:00,197.35
2014-07-03,13:40:00,197.35
2014-07-03,13:50:00,197.35
2014-07-03,14:00:00,197.36
2014-07-03,14:10:00,197.36
2014-07-03,14:20:00,197.36
2014-07-03,14:30:00,197.36
2014-07-03,14:40:00,197.35
2014-07-03,14:50:00,197.36
2014-07-03,15:00:00,197.35
2014-07-03,15:10:00,197.35
2014-07-03,15:20:00,197.35
2014-07-03,15:30:00,197.35
2014-07-03,15:40:00,197.35
2014-07-03,15:50:00,197.35
2014-07-03,16:00:00,197.35
2014-07-03,16:10:00,197.35
2014-07-03,16:20:00,197.35
2014-07-03,16:30:00,197.35
2014-07-03,16:40:00,197.35
2014-07-03,16:50:00,197.35
2014-07-03,17:00:00,197.35
2014-07-03,17:10:00,197.35
2014-07-03,17:20:00,197.35
2014-07-03,17:30:00,197.34
2014-07-03,17:40:00,197.34
2014-07-03,17:50:00,197.34
2014-07-03,18:00:00,197.34
2014-07-03,18:10:00,197.34
2014-07-03,18:20:00,197.34
2014-07-03,18:30:00,197.34
2014-07-03,18:40:00,197.34
2014-07-03,18:50:00,197.34
2014-07-03,19:00:00,197.34
2014-07-03,19:10:00,197.34
2014-07-03,19:20:00,197.35
2014-07-03,19:30:00,197.35
2014-07-03,19:40:00,197.35
2014-07-03,19:50:00,197.36
2014-07-03,20:00:00,197.36
2014-07-03,20:10:00,197.36
2014-07-03,20:20:00,197.37
2014-07-03,20:30:00,197.38
2014-07-03,20:40:00,197.38
2014-07-03,20:50:00,197.39
2014-07-03,21:00:00,197.39
2014-07-03,21:10:00,197.4
2014-07-03,21:20:00,197.4
2014-07-03,21:30:00,197.41
2014-07-03,21:40:00,197.41
2014-07-03,21:50:00,197.42
2014-07-03,22:00:00,197.43
2014-07-03,22:10:00,197.43
2014-07-03,22:20:00,197.44
2014-07-03,22:30:00,197.44
2014-07-03,22:40:00,197.45
2014-07-03,22:50:00,197.46
2014-07-03,23:00:00,197.46
2014-07-03,23:10:00,197.46
2014-07-03,23:20:00,197.47
2014-07-03,23:30:00,197.47
2014-07-03,23:40:00,197.47
2014-07-03,23:50:00,197.48
2014-07-04,00:00:00,197.48
2014-07-04,00:10:00,197.48
2014-07-04,00:20:00,197.48
2014-07-04,00:30:00,197.49
2014-07-04,00:40:00,197.49
2014-07-04,00:50:00,197.49
2014-07-04,01:00:00,197.49
2014-07-04,01:10:00,197.49
2014-07-04,01:20:00,197.5
2014-07-04,01:30:00,197.5
2014-07-04,01:40:00,197.5
2014-07-04,01:50:00,197.5
2014-07-04,02:00:00,197.5
2014-07-04,02:10:00,197.5
2014-07-04,02:20:00,197.5
2014-07-04,02:30:00,197.5
2014-07-04,02:40:00,197.5
2014-07-04,02:50:00,197.5
2014-07-04,03:00:00,197.51
2014-07-04,03:10:00,197.5
2014-07-04,03:20:00,197.51
2014-07-04,03:30:00,197.51
2014-07-04,03:40:00,197.5
2014-07-04,03:50:00,197.5
2014-07-04,04:00:00,197.5
2014-07-04,04:10:00,197.5
2014-07-04,04:20:00,197.5
2014-07-04,04:30:00,197.5
2014-07-04,04:40:00,197.5
2014-07-04,04:50:00,197.5
2014-07-04,05:00:00,197.5
2014-07-04,05:10:00,197.5
2014-07-04,05:20:00,197.5
2014-07-04,05:30:00,197.5
2014-07-04,05:40:00,197.49
2014-07-04,05:50:00,197.49
2014-07-04,06:00:00,197.49
2014-07-04,06:10:00,197.49
2014-07-04,06:20:00,197.49
2014-07-04,06:30:00,197.49
2014-07-04,06:40:00,197.48
2014-07-04,06:50:00,197.48
2014-07-04,07:00:00,197.48
2014-07-04,07:10:00,197.48
2014-07-04,07:20:00,197.47
2014-07-04,07:30:00,197.47
2014-07-04,07:40:00,197.47
2014-07-04,07:50:00,197.47
2014-07-04,08:00:00,197.46
2014-07-04,08:10:00,197.46
2014-07-04,08:20:00,197.46
2014-07-04,08:30:00,197.46
2014-07-04,08:40:00,197.45
2014-07-04,08:50:00,197.45
2014-07-04,09:00:00,197.45
2014-07-04,09:10:00,197.44
2014-07-04,09:20:00,197.44
2014-07-04,09:30:00,197.44
2014-07-04,09:40:00,197.44
2014-07-04,09:50:00,197.43
2014-07-04,10:00:00,197.43
2014-07-04,10:10:00,197.43
2014-07-04,10:20:00,197.42
2014-07-04,10:30:00,197.42
2014-07-04,10:40:00,197.41
2014-07-04,10:50:00,197.41
2014-07-04,11:00:00,197.41
2014-07-04,11:10:00,197.4
2014-07-04,11:20:00,197.4
2014-07-04,11:30:00,197.4
2014-07-04,11:40:00,197.39
2014-07-04,11:50:00,197.39
2014-07-04,12:00:00,197.38
2014-07-04,12:10:00,197.38
2014-07-04,12:20:00,197.37
2014-07-04,12:30:00,197.37
2014-07-04,12:40:00,197.36
2014-07-04,12:50:00,197.36
2014-07-04,13:00:00,197.36
2014-07-04,13:10:00,197.35
2014-07-04,13:20:00,197.35
2014-07-04,13:30:00,197.34
2014-07-04,13:40:00,197.34
2014-07-04,13:50:00,197.33
2014-07-04,14:00:00,197.33
2014-07-04,14:10:00,197.32
2014-07-04,14:20:00,197.32
2014-07-04,14:30:00,197.32
2014-07-04,14:40:00,197.31
2014-07-04,14:50:00,197.31
2014-07-04,15:00:00,197.3
2014-07-04,15:10:00,197.3
2014-07-04,15:20:00,197.29
2014-07-04,15:30:00,197.29
2014-07-04,15:40:00,197.28
2014-07-04,15:50:00,197.28
2014-07-04,16:00:00,197.27
2014-07-04,16:10:00,197.27
2014-07-04,16:20:00,197.26
2014-07-04,16:30:00,197.26
2014-07-04,16:40:00,197.26
2014-07-04,16:50:00,197.25
2014-07-04,17:00:00,197.25
2014-07-04,17:10:00,197.24
2014-07-04,17:20:00,197.23
2014-07-04,17:30:00,197.23
2014-07-04,17:40:00,197.22
2014-07-04,17:50:00,197.22
2014-07-04,18:00:00,197.21
2014-07-04,18:10:00,197.21
2014-07-04,18:20:00,197.21
2014-07-04,18:30:00,197.2
2014-07-04,18:40:00,197.2
2014-07-04,18:50:00,197.19
2014-07-04,19:00:00,197.19
2014-07-04,19:10:00,197.18
2014-07-04,19:20:00,197.18
2014-07-04,19:30:00,197.17
2014-07-04,19:40:00,197.17
2014-07-04,19:50:00,197.17
2014-07-04,20:00:00,197.16
2014-07-04,20:10:00,197.16
2014-07-04,20:20:00,197.15
2014-07-04,20:30:00,197.15
2014-07-04,20:40:00,197.15
2014-07-04,20:50:00,197.14
2014-07-04,21:00:00,197.14
2014-07-04,21:10:00,197.13
2014-07-04,21:20:00,197.13
2014-07-04,21:30:00,197.13
2014-07-04,21:40:00,197.12
2014-07-04,21:50:00,197.12
2014-07-04,22:00:00,197.12
2014-07-04,22:10:00,197.11
2014-07-04,22:20:00,197.11
2014-07-04,22:30:00,197.11
2014-07-04,22:40:00,197.1
2014-07-04,22:50:00,197.1
2014-07-04,23:00:00,197.1
2014-07-04,23:10:00,197.1
2014-07-04,23:20:00,197.09
2014-07-04,23:30:00,197.09
2014-07-04,23:40:00,197.09
2014-07-04,23:50:00,197.09
2014-07-05,00:00:00,197.08
2014-07-05,00:10:00,197.08
2014-07-05,00:20:00,197.08
2014-07-05,00:30:00,197.08
2014-07-05,00:40:00,197.08
2014-07-05,00:50:00,197.08
2014-07-05,01:00:00,197.07
2014-07-05,01:10:00,197.07
2014-07-05,01:20:00,197.07
2014-07-05,01:30:00,197.07
2014-07-05,01:40:00,197.07
2014-07-05,01:50:00,197.07
2014-07-05,02:00:00,197.07
2014-07-05,02:10:00,197.07
2014-07-05,02:20:00,197.07
2014-07-05,02:30:00,197.06
2014-07-05,02:40:00,197.06
2014-07-05,02:50:00,197.06
2014-07-05,03:00:00,197.06
2014-07-05,03:10:00,197.06
2014-07-05,03:20:00,197.06
2014-07-05,03:30:00,197.06
2014-07-05,03:40:00,197.06
2014-07-05,03:50:00,197.06
2014-07-05,04:00:00,197.06
2014-07-05,04:10:00,197.06
2014-07-05,04:20:00,197.05
2014-07-05,04:30:00,197.05
2014-07-05,04:40:00,197.05
2014-07-05,04:50:00,197.05
2014-07-05,05:00:00,197.05
2014-07-05,05:10:00,197.05
2014-07-05,05:20:00,197.05
2014-07-05,05:30:00,197.05
2014-07-05,05:40:00,197.05
2014-07-05,05:50:00,197.05
2014-07-05,06:00:00,197.05
2014-07-05,06:10:00,197.05
2014-07-05,06:20:00,197.05
2014-07-05,06:30:00,197.05
2014-07-05,06:40:00,197.05
2014-07-05,06:50:00,197.05
2014-07-05,07:00:00,197.05
2014-07-05,07:10:00,197.05
2014-07-05,07:20:00,197.04
2014-07-05,07:30:00,197.04
2014-07-05,07:40:00,197.04
2014-07-05,07:50:00,197.04
2014-07-05,08:00:00,197.04
2014-07-05,08:10:00,197.04
2014-07-05,08:20:00,197.04
2014-07-05,08:30:00,197.04
2014-07-05,08:40:00,197.04
2014-07-05,08:50:00,197.04
2014-07-05,09:00:00,197.04
2014-07-05,09:10:00,197.04
2014-07-05,09:20:00,197.04
2014-07-05,09:30:00,197.04
2014-07-05,09:40:00,197.04
2014-07-05,09:50:00,197.04
2014-07-05,10:00:00,197.04
2014-07-05,10:10:00,197.04
2014-07-05,10:20:00,197.03
2014-07-05,10:30:00,197.03
2014-07-05,10:40:00,197.03
2014-07-05,10:50:00,197.03
2014-07-05,11:00:00,197.01
2014-07-05,11:10:00,197.03
2014-07-05,11:20:00,197.03
2014-07-05,11:30:00,197.03
2014-07-05,11:40:00,197.03
2014-07-05,11:50:00,197.03
2014-07-05,12:00:00,197.03
2014-07-05,12:10:00,197.02
2014-07-05,12:20:00,197.02
2014-07-05,12:30:00,197.02
2014-07-05,12:40:00,197.02
2014-07-05,12:50:00,197.02
2014-07-05,13:00:00,197.02
2014-07-05,13:10:00,197.02
2014-07-05,13:20:00,197.02
2014-07-05,13:30:00,197.02
2014-07-05,13:40:00,197.01
2014-07-05,13:50:00,197.02
2014-07-05,14:00:00,197.01
2014-07-05,14:10:00,197.01
2014-07-05,14:20:00,197.01
2014-07-05,14:30:00,197.01
2014-07-05,14:40:00,197
2014-07-05,14:50:00,197.01
2014-07-05,15:00:00,197
2014-07-05,15:10:00,197
2014-07-05,15:20:00,197
2014-07-05,15:30:00,197
2014-07-05,15:40:00,197
2014-07-05,15:50:00,196.99
2014-07-05,16:00:00,196.99
2014-07-05,16:10:00,196.99
2014-07-05,16:20:00,196.99
2014-07-05,16:30:00,196.99
2014-07-05,16:40:00,196.98
2014-07-05,16:50:00,196.98
2014-07-05,17:00:00,196.98
2014-07-05,17:10:00,196.98
2014-07-05,17:20:00,196.97
2014-07-05,17:30:00,196.97
2014-07-05,17:40:00,196.97
2014-07-05,17:50:00,196.97
2014-07-05,18:00:00,196.97
2014-07-05,18:10:00,196.96
2014-07-05,18:20:00,196.96
2014-07-05,18:30:00,196.96
2014-07-05,18:40:00,196.96
2014-07-05,18:50:00,196.96
2014-07-05,19:00:00,196.95
2014-07-05,19:10:00,196.95
2014-07-05,19:20:00,196.95
2014-07-05,19:30:00,196.95
2014-07-05,19:40:00,196.95
2014-07-05,19:50:00,196.94
2014-07-05,20:00:00,196.94
2014-07-05,20:10:00,196.94
2014-07-05,20:20:00,196.94
2014-07-05,20:30:00,196.94
2014-07-05,20:40:00,196.94
2014-07-05,20:50:00,196.93
2014-07-05,21:00:00,196.93
2014-07-05,21:10:00,196.93
2014-07-05,21:20:00,196.93
2014-07-05,21:30:00,196.93
2014-07-05,21:40:00,196.93
2014-07-05,21:50:00,196.92
2014-07-05,22:00:00,196.92
2014-07-05,22:10:00,196.92
2014-07-05,22:20:00,196.92
2014-07-05,22:30:00,196.92
2014-07-05,22:40:00,196.92
2014-07-05,22:50:00,196.92
2014-07-05,23:00:00,196.92
2014-07-05,23:10:00,196.91
2014-07-05,23:20:00,196.92
2014-07-05,23:30:00,196.91
2014-07-05,23:40:00,196.91
2014-07-05,23:50:00,196.91
2014-07-06,00:00:00,196.91
2014-07-06,00:10:00,196.91
2014-07-06,00:20:00,196.91
2014-07-06,00:30:00,196.91
2014-07-06,00:40:00,196.91
2014-07-06,00:50:00,196.91
2014-07-06,01:00:00,196.91
2014-07-06,01:10:00,196.91
2014-07-06,01:20:00,196.91
2014-07-06,01:30:00,196.91
2014-07-06,01:40:00,196.91
2014-07-06,01:50:00,196.91
2014-07-06,02:00:00,196.91
2014-07-06,02:10:00,196.91
2014-07-06,02:20:00,196.91
2014-07-06,02:30:00,196.91
2014-07-06,02:40:00,196.91
2014-07-06,02:50:00,196.91
2014-07-06,03:00:00,196.91
2014-07-06,03:10:00,196.91
2014-07-06,03:20:00,196.91
2014-07-06,03:30:00,196.91
2014-07-06,03:40:00,196.91
2014-07-06,03:50:00,196.91
2014-07-06,04:00:00,196.91
2014-07-06,04:10:00,196.91
2014-07-06,04:20:00,196.91
2014-07-06,04:30:00,196.91
2014-07-06,04:40:00,196.91
2014-07-06,04:50:00,196.91
2014-07-06,05:00:00,196.91
2014-07-06,05:10:00,196.91
2014-07-06,05:20:00,196.91
2014-07-06,05:30:00,196.91
2014-07-06,05:40:00,196.91
2014-07-06,05:50:00,196.91
2014-07-06,06:00:00,196.91
2014-07-06,06:10:00,196.91
2014-07-06,06:20:00,196.91
2014-07-06,06:30:00,196.91
2014-07-06,06:40:00,196.91
2014-07-06,06:50:00,196.92
2014-07-06,07:00:00,196.92
2014-07-06,07:10:00,196.92
2014-07-06,07:20:00,196.92
2014-07-06,07:30:00,196.92
2014-07-06,07:40:00,196.92
2014-07-06,07:50:00,196.92
2014-07-06,08:00:00,196.92
2014-07-06,08:10:00,196.91
2014-07-06,08:20:00,196.91
2014-07-06,08:30:00,-
2014-07-06,08:40:00,-
2014-07-06,08:50:00,196.91
2014-07-06,09:00:00,196.91
2014-07-06,09:10:00,196.91
2014-07-06,09:20:00,196.91
2014-07-06,09:30:00,196.91
2014-07-06,09:40:00,196.91
2014-07-06,09:50:00,196.91
2014-07-06,10:00:00,196.91
2014-07-06,10:10:00,196.91
2014-07-06,10:20:00,196.91
2014-07-06,10:30:00,196.91
2014-07-06,10:40:00,196.91
2014-07-06,10:50:00,196.91
2014-07-06,11:00:00,196.91
2014-07-06,11:10:00,196.91
2014-07-06,11:20:00,196.91
2014-07-06,11:30:00,196.91
2014-07-06,11:40:00,196.91
2014-07-06,11:50:00,-
2014-07-06,12:00:00,-
2014-07-06,12:10:00,196.91
2014-07-06,12:20:00,196.9
2014-07-06,12:30:00,196.91
2014-07-06,12:40:00,196.91
2014-07-06,12:50:00,196.9
2014-07-06,13:00:00,196.91
2014-07-06,13:10:00,196.91
2014-07-06,13:20:00,196.9
2014-07-06,13:30:00,196.9
2014-07-06,13:40:00,-
2014-07-06,13:50:00,-
2014-07-06,14:00:00,196.9
2014-07-06,14:10:00,196.9
2014-07-06,14:20:00,196.9
2014-07-06,14:30:00,196.9
2014-07-06,14:40:00,196.9
2014-07-06,14:50:00,196.9
2014-07-06,15:00:00,196.9
2014-07-06,15:10:00,196.9
2014-07-06,15:20:00,196.9
2014-07-06,15:30:00,196.9
2014-07-06,15:40:00,196.9
2014-07-06,15:50:00,196.89
2014-07-06,16:00:00,196.89
2014-07-06,16:10:00,196.89
2014-07-06,16:20:00,196.89
2014-07-06,16:30:00,196.89
2014-07-06,16:40:00,196.89
2014-07-06,16:50:00,196.89
2014-07-06,17:00:00,196.89
2014-07-06,17:10:00,196.89
2014-07-06,17:20:00,196.88
2014-07-06,17:30:00,196.88
2014-07-06,17:40:00,196.88
2014-07-06,17:50:00,196.88
2014-07-06,18:00:00,196.88
2014-07-06,18:10:00,196.88
2014-07-06,18:20:00,196.88
2014-07-06,18:30:00,-
2014-07-06,18:40:00,-
2014-07-06,18:50:00,196.87
2014-07-06,19:00:00,196.87
2014-07-06,19:10:00,196.87
2014-07-06,19:20:00,196.87
2014-07-06,19:30:00,196.87
2014-07-06,19:40:00,196.87
2014-07-06,19:50:00,196.87
2014-07-06,20:00:00,196.87
2014-07-06,20:10:00,196.86
2014-07-06,20:20:00,196.86
2014-07-06,20:30:00,196.86
2014-07-06,20:40:00,196.86
2014-07-06,20:50:00,196.86
2014-07-06,21:00:00,196.86
2014-07-06,21:10:00,196.86
2014-07-06,21:20:00,196.86
2014-07-06,21:30:00,-
2014-07-06,21:40:00,-
2014-07-06,21:50:00,196.85
2014-07-06,22:00:00,196.85
2014-07-06,22:10:00,196.85
2014-07-06,22:20:00,196.85
2014-07-06,22:30:00,196.85
2014-07-06,22:40:00,196.85
2014-07-06,22:50:00,196.85
2014-07-06,23:00:00,196.85
2014-07-06,23:10:00,196.85
2014-07-06,23:20:00,196.85
2014-07-06,23:30:00,196.85
2014-07-06,23:40:00,196.85
2014-07-06,23:50:00,196.85
2014-07-07,00:00:00,196.85
2014-07-07,00:10:00,196.85
2014-07-07,00:20:00,196.85
2014-07-07,00:30:00,196.84
2014-07-07,00:40:00,196.84
2014-07-07,00:50:00,196.84
2014-07-07,01:00:00,196.84
2014-07-07,01:10:00,196.84
2014-07-07,01:20:00,196.84
2014-07-07,01:30:00,196.84
2014-07-07,01:40:00,196.84
2014-07-07,01:50:00,196.84
2014-07-07,02:00:00,196.84
2014-07-07,02:10:00,196.84
2014-07-07,02:20:00,196.84
2014-07-07,02:30:00,196.84
2014-07-07,02:40:00,196.84
2014-07-07,02:50:00,196.84
2014-07-07,03:00:00,196.84
2014-07-07,03:10:00,196.84
2014-07-07,03:20:00,196.84
2014-07-07,03:30:00,196.84
2014-07-07,03:40:00,196.84
2014-07-07,03:50:00,196.84
2014-07-07,04:00:00,196.84
2014-07-07,04:10:00,196.83
2014-07-07,04:20:00,196.83
2014-07-07,04:30:00,196.83
2014-07-07,04:40:00,196.83
2014-07-07,04:50:00,196.83
2014-07-07,05:00:00,196.83
2014-07-07,05:10:00,196.83
2014-07-07,05:20:00,196.83